| time (UTC) | temp F | wind direction | speed knots | gust knots | rain 1hr in | rain 24hr in | rain mn in | humidity % | barometer mb |
| 20260506221520 | 68 | 311 | 7.8 | 24.3 | 0.00 | 0.00 | 0.00 | 43 | 1013.0 |
| 20260506220018 | 68 | 278 | 8.7 | 13.9 | 0.00 | 0.00 | 0.00 | 45 | 1013.0 |
| 20260506214514 | 68 | 283 | 7.8 | 20.0 | 0.00 | 0.00 | 0.00 | 44 | 1012.9 |
| 20260506213013 | 68 | 264 | 8.7 | 19.1 | 0.00 | 0.00 | 0.00 | 45 | 1013.0 |
| 20260506211509 | 68 | 240 | 6.1 | 17.4 | 0.00 | 0.00 | 0.00 | 48 | 1013.0 |
| 20260506210008 | 68 | 297 | 6.1 | 20.0 | 0.00 | 0.00 | 0.00 | 48 | 1012.9 |
| 20260506204504 | 69 | 283 | 7.8 | 24.3 | 0.00 | 0.00 | 0.00 | 46 | 1012.9 |
| 20260506203104 | 70 | 277 | 7.0 | 14.8 | 0.00 | 0.00 | 0.00 | 46 | 1012.8 |
| 20260506203002 | 70 | 293 | 7.0 | 14.8 | 0.00 | 0.00 | 0.00 | 45 | 1012.9 |
| 20260506201557 | 70 | 311 | 7.8 | 20.9 | 0.00 | 0.00 | 0.00 | 46 | 1012.7 |
| 20260506200136 | 71 | 293 | 7.0 | 18.2 | 0.00 | 0.00 | 0.00 | 45 | 1012.5 |
| 20260506194555 | 70 | 266 | 9.6 | 16.5 | 0.00 | 0.00 | 0.00 | 45 | 1012.4 |
| 20260506193148 | 69 | 272 | 7.8 | 15.6 | 0.00 | 0.00 | 0.00 | 47 | 1012.2 |
| 20260506191547 | 70 | 293 | 8.7 | 20.9 | 0.00 | 0.00 | 0.00 | 47 | 1012.5 |
| 20260506190041 | 70 | 288 | 5.2 | 19.1 | 0.00 | 0.00 | 0.00 | 47 | 1012.4 |
| 20260506184537 | 70 | 267 | 7.0 | 22.6 | 0.00 | 0.00 | 0.00 | 46 | 1012.4 |
| 20260506183035 | 68 | 280 | 11.3 | 22.6 | 0.00 | 0.00 | 0.00 | 48 | 1012.5 |
| 20260506181535 | 68 | 281 | 9.6 | 21.7 | 0.00 | 0.00 | 0.00 | 50 | 1012.5 |
| 20260506180034 | 68 | 295 | 5.2 | 17.4 | 0.00 | 0.00 | 0.00 | 49 | 1012.3 |
| 20260506174526 | 67 | 288 | 9.6 | 17.4 | 0.00 | 0.00 | 0.00 | 49 | 1012.5 |
| 20260506173019 | 66 | 290 | 7.8 | 19.1 | 0.00 | 0.00 | 0.00 | 52 | 1012.4 |
| 20260506171533 | 66 | 277 | 3.5 | 13.9 | 0.00 | 0.00 | 0.00 | 52 | 1012.7 |
| 20260506170011 | 65 | 293 | 4.3 | 12.2 | 0.00 | 0.00 | 0.00 | 56 | 1012.8 |
| 20260506164504 | 64 | 289 | 7.0 | 17.4 | 0.00 | 0.00 | 0.00 | 56 | 1012.9 |
| 20260506163003 | 63 | 296 | 7.8 | 15.6 | 0.00 | 0.00 | 0.00 | 56 | 1012.9 |
| 20260506161558 | 62 | 301 | 7.0 | 14.8 | 0.00 | 0.00 | 0.00 | 60 | 1013.2 |
| 20260506160059 | 61 | 283 | 7.0 | 14.8 | 0.00 | 0.00 | 0.00 | 63 | 1013.0 |
| 20260506154544 | 60 | 304 | 6.1 | 14.8 | 0.00 | 0.00 | 0.00 | 64 | 1013.0 |
| 20260506153042 | 59 | 332 | 6.1 | 11.3 | 0.00 | 0.00 | 0.00 | 67 | 1013.3 |
| 20260506151534 | 58 | 312 | 5.2 | 13.9 | 0.00 | 0.00 | 0.00 | 70 | 1013.3 |
| 20260506150033 | 56 | 321 | 5.2 | 9.6 | 0.00 | 0.00 | 0.00 | 73 | 1013.5 |
| 20260506144527 | 55 | 333 | 3.5 | 9.6 | 0.00 | 0.00 | 0.00 | 76 | 1013.6 |
| 20260506143024 | 54 | 293 | 5.2 | 8.7 | 0.00 | 0.00 | 0.00 | 78 | 1013.6 |
| 20260506141522 | 52 | 348 | 2.6 | 7.8 | 0.00 | 0.00 | 0.00 | 82 | 1013.6 |
| 20260506140020 | 49 | 43 | 0.9 | 3.5 | 0.00 | 0.00 | 0.00 | 84 | 1013.7 |
| 20260506134534 | 48 | 23 | 4.3 | 10.4 | 0.00 | 0.00 | 0.00 | 90 | 1013.6 |
| 20260506133015 | 46 | 277 | 0.0 | 3.5 | 0.00 | 0.00 | 0.00 | 88 | 1013.5 |
| 20260506131511 | 45 | 280 | 0.9 | 2.6 | 0.00 | 0.00 | 0.00 | 89 | 1013.4 |
| 20260506130010 | 44 | 283 | 0.9 | 1.7 | 0.00 | 0.00 | 0.00 | 91 | 1013.4 |
| 20260506124510 | 44 | 285 | 0.0 | 3.5 | 0.00 | 0.00 | 0.00 | 89 | 1013.3 |
| 20260506123059 | 46 | 279 | 1.7 | 4.3 | 0.00 | 0.00 | 0.00 | 88 | 1013.1 |
| 20260506121605 | 47 | 307 | 1.7 | 4.3 | 0.00 | 0.00 | 0.00 | 85 | 1013.1 |
| 20260506120050 | 47 | 287 | 0.0 | 2.6 | 0.00 | 0.00 | 0.00 | 83 | 1012.9 |
| 20260506114552 | 49 | 294 | 0.9 | 4.3 | 0.00 | 0.00 | 0.00 | 82 | 1012.9 |
| 20260506113045 | 49 | 348 | 1.7 | 4.3 | 0.00 | 0.00 | 0.00 | 86 | 1012.8 |
| 20260506111542 | 49 | 281 | 1.7 | 5.2 | 0.00 | 0.00 | 0.00 | 82 | 1012.7 |
| 20260506110039 | 51 | 5 | 2.6 | 7.0 | 0.00 | 0.00 | 0.00 | 81 | 1012.4 |
| 20260506104536 | 52 | 1 | 3.5 | 8.7 | 0.00 | 0.00 | 0.00 | 80 | 1012.4 |
| 20260506103034 | 51 | 339 | 4.3 | 7.8 | 0.00 | 0.00 | 0.00 | 81 | 1012.2 |
| 20260506101533 | 47 | 288 | 0.9 | 2.6 | 0.00 | 0.00 | 0.00 | 86 | 1012.3 |
| 20260506100033 | 50 | 313 | 0.9 | 4.3 | 0.00 | 0.00 | 0.00 | 79 | 1012.1 |
| 20260506094524 | 53 | 330 | 3.5 | 7.0 | 0.00 | 0.00 | 0.00 | 77 | 1012.1 |
| 20260506093019 | 53 | 326 | 3.5 | 13.0 | 0.00 | 0.00 | 0.00 | 76 | 1012.1 |
| 20260506091514 | 54 | 335 | 4.3 | 9.6 | 0.00 | 0.00 | 0.00 | 75 | 1011.9 |
| 20260506090009 | 54 | 342 | 5.2 | 10.4 | 0.00 | 0.00 | 0.00 | 74 | 1011.9 |
| 20260506084506 | 54 | 343 | 4.3 | 10.4 | 0.00 | 0.00 | 0.00 | 73 | 1011.8 |
| 20260506083005 | 54 | 4 | 5.2 | 11.3 | 0.00 | 0.00 | 0.00 | 74 | 1011.8 |
| 20260506081558 | 55 | 342 | 5.2 | 9.6 | 0.00 | 0.00 | 0.00 | 73 | 1011.9 |
| 20260506073042 | 57 | 299 | 4.3 | 10.4 | 0.00 | 0.00 | 0.00 | 69 | 1011.6 |
| 20260506071538 | 57 | 321 | 6.1 | 10.4 | 0.00 | 0.00 | 0.00 | 69 | 1011.5 |
| 20260506061533 | 59 | 352 | 5.2 | 14.8 | 0.00 | 0.00 | 0.00 | 66 | 1011.1 |
| 20260506044517 | 63 | 317 | 6.1 | 15.6 | 0.00 | 0.00 | 0.00 | 59 | 1010.4 |
| 20260506043013 | 64 | 288 | 8.7 | 18.2 | 0.00 | 0.00 | 0.00 | 57 | 1010.3 |
| 20260506041507 | 65 | 300 | 7.0 | 16.5 | 0.00 | 0.00 | 0.00 | 56 | 1010.1 |
| 20260506040006 | 66 | 252 | 7.0 | 13.0 | 0.00 | 0.00 | 0.00 | 55 | 1010.1 |
| 20260506034508 | 66 | 277 | 6.1 | 13.0 | 0.00 | 0.00 | 0.00 | 54 | 1009.8 |
| 20260506033008 | 67 | 300 | 4.3 | 15.6 | 0.00 | 0.00 | 0.00 | 53 | 1009.6 |
| 20260506031502 | 68 | 262 | 7.8 | 15.6 | 0.00 | 0.00 | 0.00 | 52 | 1009.4 |
| 20260506030003 | 69 | 262 | 7.8 | 14.8 | 0.00 | 0.00 | 0.00 | 50 | 1009.2 |
| 20260506024606 | 71 | 289 | 5.2 | 13.0 | 0.00 | 0.00 | 0.00 | 48 | 1009.1 |
| 20260506023056 | 72 | 266 | 4.3 | 15.6 | 0.00 | 0.00 | 0.00 | 46 | 1009.0 |
| 20260506021553 | 73 | 278 | 3.5 | 10.4 | 0.00 | 0.00 | 0.00 | 45 | 1008.9 |
| 20260506020106 | 74 | 228 | 7.0 | 16.5 | 0.00 | 0.00 | 0.00 | 43 | 1008.8 |
| 20260506014651 | 74 | 262 | 5.2 | 12.2 | 0.00 | 0.00 | 0.00 | 42 | 1008.6 |
| 20260506013049 | 75 | 318 | 7.0 | 15.6 | 0.00 | 0.00 | 0.00 | 39 | 1008.6 |
| 20260506011610 | 76 | 204 | 7.0 | 14.8 | 0.00 | 0.00 | 0.00 | 37 | 1008.6 |
| 20260506010046 | 77 | 274 | 6.1 | 13.9 | 0.00 | 0.00 | 0.00 | 36 | 1008.5 |
| 20260506004557 | 77 | 293 | 7.8 | 14.8 | 0.00 | 0.00 | 0.00 | 34 | 1008.6 |
| 20260506003037 | 78 | 288 | 3.5 | 15.6 | 0.00 | 0.00 | 0.00 | 34 | 1008.4 |
| 20260506001537 | 78 | 259 | 6.1 | 11.3 | 0.00 | 0.00 | 0.00 | 34 | 1008.4 |
| 20260506000058 | 79 | 276 | 6.1 | 13.9 | 0.00 | 0.00 | 0.00 | 34 | 1008.5 |
| 20260505234541 | 79 | 221 | 7.0 | 19.1 | 0.00 | 0.00 | 0.00 | 31 | 1008.7 |
| 20260505233029 | 79 | 250 | 6.1 | 13.9 | 0.00 | 0.00 | 0.00 | 30 | 1008.6 |
| 20260505231527 | 79 | 256 | 7.0 | 13.9 | 0.00 | 0.00 | 0.00 | 30 | 1008.7 |
| 20260505230047 | 80 | 233 | 7.0 | 13.9 | 0.00 | 0.00 | 0.00 | 29 | 1008.8 |
| 20260505224534 | 80 | 260 | 6.1 | 11.3 | 0.00 | 0.00 | 0.00 | 30 | 1008.7 |
| 20260505223023 | 80 | 267 | 7.0 | 12.2 | 0.00 | 0.00 | 0.00 | 31 | 1008.9 |